sat.trackr.live / text

‹ back to catalog

STARLINK-31082

NORAD 58606 · 2023-200T

PAYLOAD ACTIVE UNKNOWN

§ Identity

Operator
Country
US
Launch date
2023-12-19
Launch site
AFETR
Launch vehicle
Mass (kg)
RCS (m²)

Purposes: comms

External: N2YO · Heavens-Above · Gunter

§ Orbital elements

Epoch: 2026-09-20T00:42:58.842144Z

Period
94.27 min
Inclination
43.0024°
Eccentricity
0.0001414
Mean motion
15.27576931 rev/d
Perigee alt
482.1 km
Apogee alt
484.0 km
Semi-major
6,861.2 km
B*
-9.5916e-6
RAAN
151.2361°
Arg perigee
269.9621°
Mean anomaly
90.1068°
Rev number
15,333

§ Raw data

STARLINK-310821 58606U 23200T   26263.02984771 -.00000526  00000+0 -95916-5 0  99982 58606  43.0024 151.2361 0001414 269.9621  90.1068 15.27576931153339

JSON: /api/v1/satellites/58606 · /tle

For live sub-satellite position, see the globe view (requires WebGL).

§ Visibility from observer

Set your observer location to see the next 7 days of passes ≥ 10°. The values pass through the URL so the page stays shareable.

No JS? Fill the form by hand. The geolocation button needs JavaScript.